#timestamp,LO_Frequency,Hit 
1503676815.4,286046997.2,N
1503676835.3,286046998.5,N
1503676855.1,286046999.4,N
1503676875.8,286046999.5,N
1503676895.7,286047003.2,N
1503676915.5,286047004.0,N
1503676935.3,286047010.9,N
1503676955.2,286047008.1,N
1503676975.9,286047001.8,N
1503676995.7,286047013.7,N
1503677015.6,286047021.9,N
1503677035.4,286047017.7,N
1503677055.2,286047022.9,N
1503677075.1,286047017.9,N
1503677076.0,286047017.9,N
1503677095.8,286047017.1,N
1503677115.6,286047008.8,N
1503677135.4,286047009.6,N
1503677155.3,286047010.1,N
1503677175.1,286047001.4,N
1503677195.8,286047003.0,N
1503677215.7,286047000.8,N
1503677235.5,286047001.5,N
1503677255.3,286047004.3,N
1503677275.2,286047002.9,N
1503677295.9,286047003.4,N
1503677315.7,286047002.0,N
1503677335.6,286047006.9,N
1503677355.4,286047016.6,N
1503677375.2,286047016.3,N
1503677395.1,286047026.1,P
1503677396.0,286047026.1,N
1503677415.8,286047037.0,P
1503677435.6,286047041.0,P
1503677455.5,286047001.9,N
1503677475.3,286046992.8,N
1503677495.1,286046993.3,N
1503677515.9,286047000.7,N
1503677535.7,286046995.6,N
1503677555.5,286046987.2,N
1503677575.4,286046989.5,N
1503677595.2,286046998.0,N
1503677615.0,286047000.3,N
1503677615.9,286047000.3,N
1503677635.8,286047007.6,N
1503677655.6,286047008.6,N
1503677675.4,286047005.4,N
1503677695.2,286047000.4,N
1503677715.1,286047002.2,N
1503677716.0,286047002.2,N
1503677735.8,286047001.5,N
1503677755.6,286046999.5,N
1503677775.5,286047004.5,N
1503677795.3,286047000.1,N
1503677815.1,286046995.3,N
1503677835.9,286046991.8,N
1503677855.7,286047000.7,N
1503677875.5,286046995.4,N
1503677895.4,286046994.8,N
1503677915.2,286046994.0,N
1503677935.0,286046996.1,N
1503677935.9,286046996.1,N
1503677955.8,286046989.3,N
1503677975.6,286046995.4,N
1503677995.4,286046995.1,N
1503678015.2,286046996.4,N
1503678035.1,286046992.0,N
1503678036.0,286046992.0,N
1503678055.8,286046988.1,N
1503678075.7,286046979.2,P
1503678095.5,286046988.0,N
1503678115.3,286046992.1,N
1503678135.2,286046989.6,N
1503678155.9,286046987.8,N
1503678175.7,286046988.9,N
1503678195.5,286046988.8,N
1503678215.4,286046988.4,N
1503678235.2,286046986.5,P
1503678255.0,286046997.2,N
1503678256.0,286046997.2,N
1503678275.8,286047003.5,N
1503678295.6,286047003.7,N
1503678315.4,286046996.5,N
1503678335.3,286046994.1,N
1503678355.1,286046994.0,N
1503678375.8,286046992.7,N
1503678395.7,286046991.3,N
1503678415.5,286046991.5,N
1503678435.3,286046992.8,N
1503678455.2,286046993.5,N
1503678475.9,286046994.7,N
1503678495.7,286046988.7,N
1503678515.6,286046988.1,N
1503678535.4,286046990.4,N
1503678555.2,286047003.3,N
1503678575.0,286047003.1,N
1503678576.0,286047003.1,N
1503678595.8,286047005.3,N
1503678615.6,286047000.5,N
1503678635.4,286047004.2,N
1503678655.3,286047001.4,N
1503678675.1,286046999.4,N
1503678695.8,286046998.5,N
1503678715.7,286046994.5,N
1503678735.5,286046990.8,N
1503678755.3,286046990.3,N
1503678775.2,286047000.4,N
1503678795.9,286046995.9,N
1503678815.7,286046999.1,N
1503678835.6,286046997.1,N
1503678855.4,286047003.9,N
1503678875.2,286047017.2,P
1503678895.1,286047021.1,N
1503678896.0,286047021.1,N
1503678915.8,286047014.0,N
1503678935.6,286047006.7,N
1503678955.5,286047006.0,N
1503678975.3,286047008.2,N
1503678995.1,286047002.6,N
1503679015.8,286046998.7,N
1503679035.7,286047000.3,N
1503679055.5,286047011.3,N
1503679075.3,286047013.1,N
1503679095.2,286047007.8,N
1503679115.9,286047005.4,N
1503679135.7,286047001.6,N
1503679155.6,286047000.3,N
1503679175.4,286046998.3,N
1503679195.2,286047003.4,N
1503679215.1,286047001.3,N
1503679216.0,286047001.3,N
1503679235.8,286047000.7,N
1503679255.6,286046997.5,N
1503679275.4,286046996.4,N
1503679295.3,286046996.9,N
1503679315.1,286046995.4,N
1503679335.8,286047005.4,N
1503679355.7,286047001.9,N
1503679375.5,286046999.9,N
1503679395.3,286046997.3,N
1503679415.2,286046995.0,N
1503679435.9,286046996.5,N
1503679455.7,286047005.0,N
1503679475.6,286047000.4,N
1503679495.4,286047006.0,N
1503679515.3,286047007.6,N
1503679535.1,286047009.5,N
1503679536.0,286047009.5,N
1503679555.8,286047014.4,N
1503679575.7,286047008.3,N
1503679595.5,286047013.9,N
1503679615.3,286047022.6,P
1503679635.2,286047018.1,N
1503679655.9,286047019.7,N
1503679675.7,286047016.0,N
1503679695.9,286047015.2,N
1503679715.7,286047013.3,N
1503679735.5,286047015.4,N
1503679755.3,286047014.5,N
1503679775.2,286047017.9,P
1503679795.0,286047000.1,N
1503679795.9,286047000.1,N
1503679815.8,286046989.4,N
1503679835.6,286046985.5,N
1503679855.4,286046987.3,N
1503679875.2,286047000.8,N
1503679895.1,286047010.6,N
1503679896.0,286047010.6,N
1503679915.8,286047010.5,N
1503679935.6,286047007.5,N
1503679955.5,286047006.1,N
1503679975.3,286047016.4,N
1503679995.1,286047021.3,N
1503680015.9,286047018.1,N
1503680035.7,286047011.3,N
1503680055.5,286047009.6,N
1503680075.4,286047004.6,N
1503680095.2,286047007.5,N
1503680115.0,286047004.8,N
1503680115.9,286047004.8,N
1503680135.8,286047006.4,N
1503680155.6,286047010.1,N
1503680175.4,286047005.5,N
1503680195.2,286047005.8,N
1503680215.1,286047004.0,N
1503680216.0,286047004.0,N
1503680235.8,286046999.8,N
1503680255.6,286047005.0,N
1503680275.5,286046998.4,N
1503680295.3,286046994.9,N
1503680315.1,286046991.5,N
1503680335.9,286046985.1,N
1503680355.7,286046977.7,N
1503680375.5,286046984.0,N
1503680395.4,286046988.4,N
